Wind_Speed
25 24 24 23 22 22 21 21 22 23 22 21 19 20 19 18 17 16 16 15 15 14 14 14 15 16 17 16 16 17 17 18 18 18 19 19 19 18 19 20 21 21 21 21
25 25 25 25 24 23 22 21 22 23 23 21 21 20 19 18 18 18 18 18 17 16 16 16 17 18 18 18 18 19 19 19 19 20 20 21 21 20 21 21 22 22 23 23
26 26 26 27 26 25 25 24 23 24 23 23 22 20 20 20 20 19 20 20 19 19 19 19 18 18 19 18 18 19 20 21 21 21 22 22 22 23 23 23 23 24 24 25
27 27 29 27 27 26 26 25 25 25 23 24 24 22 21 21 21 20 20 21 22 22 22 22 22 21 21 21 21 22 22 22 22 23 23 23 24 25 24 24 24 25 25 25
28 28 28 26 25 26 27 26 26 25 25 26 25 23 21 21 21 21 22 22 23 23 23 24 24 23 24 24 24 24 24 23 23 25 25 25 26 26 25 25 25 26 27 27
29 29 28 26 26 27 27 27 26 26 25 26 26 25 23 22 23 23 24 24 25 25 24 24 24 24 25 25 24 24 24 24 25 26 26 26 26 26 27 27 27 28 28 29
30 30 28 27 27 26 28 27 27 27 26 27 26 25 24 25 26 26 27 26 25 26 25 25 25 25 26 26 25 25 25 26 26 27 27 27 27 28 28 28 28 29 29 29
31 31 29 28 28 28 29 28 28 28 27 27 27 25 25 27 28 28 27 28 26 26 27 27 27 26 27 28 28 27 27 28 28 29 29 29 30 29 29 29 29 29 29 29
33 32 30 30 30 29 29 30 30 28 28 28 27 28 28 28 29 29 28 28 27 28 28 28 28 28 28 29 29 29 29 30 30 30 31 31 31 31 30 30 30 30 29 29
33 32 30 30 30 29 28 28 28 28 28 29 29 28 28 27 27 28 27 27 28 29 29 28 29 29 29 29 29 30 30 31 31 31 31 31 31 31 31 30 30 30 30 29
34 33 31 30 32 32 31 30 28 28 28 30 30 30 30 29 29 29 28 28 28 29 29 29 29 30 30 30 31 31 31 32 32 31 31 31 31 31 30 30 30 30 30 30
34 33 32 31 30 31 31 31 30 29 29 30 32 33 32 31 31 30 30 30 30 30 30 31 31 31 31 31 31 32 32 32 32 31 31 30 30 30 30 30 30 30 30 30
32 32 32 31 31 31 31 31 31 30 31 32 32 32 32 31 31 31 31 30 29 30 31 31 31 32 32 32 32 31 31 32 31 30 30 30 30 30 30 29 29 29 29 29
32 32 32 31 30 29 28 30 32 33 32 33 32 32 32 32 31 32 31 31 30 31 31 32 33 32 32 32 32 31 32 31 31 30 31 30 30 30 29 29 29 29 28 29
32 32 32 31 30 29 28 30 31 32 32 33 32 31 32 32 31 31 31 31 31 31 32 32 32 32 31 31 31 31 31 31 31 30 30 30 30 30 29 28 28 28 29 29
32 31 31 31 30 29 28 28 29 30 31 32 31 30 30 31 32 32 32 32 30 30 30 31 31 31 32 31 31 30 30 30 30 29 29 29 29 29 28 28 28 28 28 29
29 28 28 28 28 28 28 28 28 28 29 30 30 30 30 30 30 31 31 32 32 31 29 30 31 31 31 30 30 29 29 29 29 29 29 29 29 28 28 28 28 28 28 28
27 27 27 28 28 28 27 27 28 28 29 29 30 29 29 29 29 29 30 30 30 30 29 29 29 29 29 29 29 29 29 29 28 28 29 29 29 28 28 28 28 28 28 28
25 26 26 27 28 28 28 27 27 27 28 27 27 27 27 27 28 29 29 29 29 29 28 28 28 29 29 29 29 29 29 29 29 29 28 29 29 29 29 29 28 28 28 28
25 25 25 26 27 27 28 28 28 27 27 28 28 27 27 27 28 28 28 27 28 28 28 28 28 28 28 29 29 29 28 28 28 28 28 28 28 28 28 28 28 28 27 27
24 24 24 25 25 25 26 26 26 26 26 26 26 26 27 27 27 28 27 27 27 28 28 27 27 27 27 27 28 28 28 28 28 28 27 27 27 27 28 28 28 27 26 26
23 24 23 24 23 24 24 24 24 24 24 24 24 25 25 26 26 26 26 26 26 26 26 26 26 26 26 26 27 27 28 28 27 27 26 26 26 26 27 26 26 25 25 25
22 23 23 23 23 22 22 23 23 23 23 23 23 23 24 25 25 26 25 25 25 25 25 25 25 25 25 25 25 26 26 26 26 26 26 26 27 27 26 25 25 24 24 24
19 19 20 21 21 20 21 21 22 22 22 22 22 22 22 22 23 23 23 23 22 23 23 23 24 24 24 25 25 25 25 25 25 26 26 26 26 26 26 25 24 23 23 23
17 18 19 19 19 18 19 19 20 20 21 21 21 21 21 22 21 21 21 22 21 22 22 22 22 23 23 23 23 24 24 25 25 25 25 25 25 24 23 23 23 22 22 21
16 16 17 17 18 18 18 18 18 19 20 20 20 21 21 21 21 20 20 20 20 20 20 21 21 22 22 22 22 23 23 24 24 24 23 23 23 22 22 22 22 22 21 20
15 15 16 17 17 18 18 18 18 18 19 19 20 20 19 19 20 19 20 20 20 20 20 21 21 21 21 21 21 22 22 22 22 22 22 22 22 22 23 22 22 21 21 21
Wind_Direction
242 242 240 240 242 245 250 257 257 257 260 263 263 265 270 270 267 270 274 278 284 284 282 285 287 290 290 292 292 292 294 294 294 295 295 296 297 298 298 298 298 298 300 300
240 240 241 243 245 247 247 253 259 260 261 264 262 263 265 268 269 272 276 279 283 285 285 284 286 287 287 289 292 292 294 296 295 295 296 295 295 295 296 296 296 296 297 297
241 240 242 242 244 247 247 251 257 261 263 267 263 263 266 268 270 273 275 277 284 284 284 282 286 288 288 287 291 293 294 294 295 294 295 296 295 293 292 291 291 292 294 296
245 244 243 243 243 245 248 252 257 260 261 264 266 265 266 265 268 269 273 276 279 280 279 277 279 281 285 287 291 292 292 292 290 292 295 296 295 294 292 290 290 292 293 293
247 248 249 246 245 248 250 254 256 258 259 261 263 262 265 269 269 270 273 275 277 278 278 277 277 280 282 283 285 288 291 293 293 295 297 296 296 294 295 293 291 290 291 293
249 250 249 246 246 249 250 251 252 254 258 262 263 262 268 272 271 271 274 274 275 274 278 280 277 281 286 285 286 289 293 294 295 296 296 296 296 296 295 293 291 290 291 293
250 250 251 248 246 247 249 251 252 255 258 262 261 263 266 269 271 272 274 274 276 277 280 281 282 283 287 288 288 289 291 294 296 297 296 296 295 295 295 293 292 292 292 292
250 250 250 249 245 246 249 252 254 257 258 260 260 262 264 267 270 271 273 274 277 280 281 281 282 285 287 287 287 288 289 290 292 294 295 295 295 295 294 293 293 293 293 292
250 250 251 249 247 247 249 251 253 255 256 256 258 262 265 268 271 272 274 275 277 279 280 281 282 284 285 285 286 288 289 289 290 292 293 294 294 294 294 293 292 292 292 292
251 251 251 250 248 250 252 254 256 254 256 257 261 264 267 270 273 275 274 275 277 279 280 282 284 285 284 285 286 288 289 290 290 292 293 293 293 292 291 291 291 292 292 292
252 253 250 251 251 253 254 254 257 258 260 262 264 266 269 271 273 275 276 276 277 278 279 282 284 285 285 284 285 286 287 288 290 292 293 293 292 291 290 290 291 292 293 292
252 252 252 254 254 254 254 255 256 259 262 264 265 267 268 270 272 272 274 276 275 276 278 280 282 283 283 283 284 285 286 287 288 290 291 292 291 290 290 291 292 293 294 294
252 254 255 256 256 255 257 256 257 260 262 263 263 264 266 269 270 271 272 274 275 276 276 278 280 282 282 283 284 286 288 289 289 289 289 290 291 291 291 292 293 294 294 294
252 255 258 258 257 257 257 258 259 261 261 263 264 264 265 267 267 268 269 271 273 274 274 276 279 280 281 284 286 288 289 288 287 287 289 290 290 291 291 291 292 293 294 295
252 255 257 256 257 258 259 260 261 262 262 262 264 265 266 266 267 267 268 273 273 273 273 276 278 279 281 283 285 286 286 286 286 287 288 289 289 291 291 291 291 292 293 294
253 254 253 253 256 260 261 261 262 262 262 263 264 265 266 267 267 267 269 272 273 273 274 277 279 280 280 282 284 285 285 286 286 287 288 289 290 290 290 291 292 293 293 294
254 255 255 254 256 261 263 263 264 264 264 265 265 265 266 266 267 269 269 270 272 275 278 278 279 279 280 281 283 285 286 287 288 288 288 288 288 289 289 290 292 293 294 295
256 257 257 257 259 262 263 263 264 265 265 266 266 266 267 268 269 269 270 272 274 275 276 277 278 279 280 282 283 284 286 287 288 288 288 288 288 288 289 290 291 292 294 295
254 255 257 258 260 261 262 263 264 266 267 267 269 269 271 272 271 271 274 274 274 274 275 276 277 279 280 281 282 283 284 285 287 288 288 288 288 289 290 291 291 291 293 294
254 253 255 256 258 259 260 261 264 266 267 268 270 271 271 272 273 275 276 275 275 275 277 278 278 279 279 280 281 282 284 285 286 287 288 287 288 289 291 291 291 291 291 292
251 249 252 255 256 256 257 259 262 265 267 268 270 270 271 272 273 274 275 275 275 275 276 277 278 279 280 279 280 282 283 284 285 286 287 288 289 290 291 292 291 290 291 292
250 249 250 252 254 255 257 258 260 263 265 266 268 270 271 272 273 274 275 276 275 275 275 277 279 279 279 279 281 282 283 285 286 287 287 288 290 291 293 292 291 290 292 293
253 253 251 251 254 256 256 256 259 263 265 266 268 270 271 272 274 276 277 277 276 275 276 277 278 278 278 281 282 283 284 285 285 286 287 288 289 291 292 292 291 290 291 292
253 253 253 256 256 255 255 256 257 261 265 268 270 272 274 276 277 278 278 278 277 277 278 278 279 279 280 283 283 284 285 286 286 286 288 290 291 291 291 291 291 290 291 291
251 250 254 255 254 256 258 258 260 262 264 267 271 275 278 279 280 280 281 279 279 280 281 282 283 284 284 286 286 285 286 286 286 285 287 289 290 289 288 288 289 290 291 291
253 252 254 255 256 258 260 262 264 264 265 268 272 276 278 279 279 279 281 280 280 280 281 282 284 286 287 289 290 288 287 288 288 287 287 288 288 286 287 288 289 289 288 288
256 257 260 261 262 264 264 265 265 267 270 272 274 276 278 278 278 279 281 282 281 280 281 283 286 287 289 290 290 289 290 291 290 288 288 288 287 286 285 287 289 289 288 287
Height
5861 5863 5864 5866 5867 5868 5869 5870 5871 5872 5873 5874 5875 5875 5876 5875 5876 5876 5876 5876 5877 5876 5876 5875 5875 5874 5873 5872 5871 5870 5868 5867 5865 5864 5862 5860 5859 5857 5855 5854 5852 5850 5848 5846
5855 5857 5859 5860 5862 5863 5864 5865 5865 5866 5868 5869 5869 5870 5871 5870 5871 5872 5872 5871 5872 5871 5871 5870 5870 5869 5868 5867 5865 5864 5863 5861 5860 5858 5856 5855 5853 5851 5850 5848 5846 5844 5842 5840
5849 5851 5852 5854 5857 5858 5859 5859 5860 5861 5863 5863 5864 5865 5866 5866 5866 5866 5866 5866 5866 5866 5865 5864 5864 5863 5862 5861 5860 5859 5857 5855 5854 5852 5850 5848 5847 5845 5843 5841 5840 5838 5836 5834
5842 5845 5846 5850 5851 5852 5852 5853 5854 5855 5856 5858 5859 5859 5860 5860 5860 5860 5860 5861 5860 5860 5859 5859 5858 5857 5856 5855 5854 5853 5851 5849 5848 5846 5844 5842 5840 5838 5835 5834 5833 5831 5829 5827
5836 5837 5839 5842 5844 5845 5846 5847 5848 5849 5850 5851 5852 5853 5853 5853 5854 5854 5855 5855 5854 5854 5853 5852 5851 5850 5850 5849 5848 5846 5845 5844 5841 5839 5837 5835 5833 5831 5829 5827 5825 5823 5821 5819
5828 5830 5832 5836 5837 5838 5840 5840 5841 5842 5844 5844 5845 5847 5848 5848 5848 5848 5848 5848 5848 5847 5847 5845 5845 5844 5843 5842 5840 5839 5838 5837 5835 5833 5830 5828 5826 5824 5821 5820 5818 5816 5814 5811
5821 5823 5825 5828 5830 5831 5833 5835 5835 5836 5838 5839 5839 5840 5840 5841 5841 5842 5842 5841 5840 5840 5839 5839 5838 5838 5837 5835 5834 5832 5831 5830 5827 5825 5822 5820 5818 5816 5814 5812 5810 5807 5805 5803
5814 5816 5820 5821 5822 5824 5825 5826 5827 5829 5830 5831 5832 5832 5833 5833 5834 5834 5834 5833 5833 5833 5832 5832 5831 5830 5829 5828 5826 5824 5823 5822 5819 5817 5814 5812 5810 5808 5806 5804 5801 5799 5797 5795
5807 5810 5811 5812 5814 5815 5816 5818 5820 5821 5822 5823 5825 5826 5826 5826 5826 5826 5826 5826 5825 5825 5825 5824 5823 5822 5821 5820 5818 5817 5815 5813 5811 5809 5806 5804 5802 5800 5797 5795 5793 5791 5788 5786
5798 5800 5803 5804 5806 5807 5808 5810 5811 5813 5815 5816 5817 5818 5818 5819 5819 5818 5818 5818 5817 5817 5816 5815 5815 5813 5812 5811 5809 5808 5806 5805 5802 5800 5798 5796 5793 5791 5788 5786 5784 5782 5779 5777
5790 5792 5794 5796 5798 5800 5801 5803 5804 5805 5806 5807 5808 5809 5810 5811 5811 5810 5810 5809 5809 5808 5807 5806 5806 5804 5803 5801 5800 5799 5797 5795 5793 5791 5789 5787 5784 5782 5780 5777 5775 5773 5770 5768
5782 5784 5786 5788 5790 5791 5793 5795 5796 5797 5797 5798 5799 5801 5801 5802 5802 5801 5801 5800 5800 5799 5799 5798 5797 5796 5794 5793 5791 5790 5788 5786 5784 5782 5780 5778 5775 5773 5770 5768 5766 5763 5761 5758
5773 5775 5777 5779 5781 5783 5784 5786 5787 5788 5789 5790 5791 5791 5792 5792 5792 5792 5791 5791 5790 5789 5789 5789 5788 5786 5785 5783 5781 5780 5779 5777 5775 5773 5771 5769 5767 5764 5762 5760 5757 5755 5752 5749
5765 5767 5769 5771 5773 5774 5775 5776 5777 5778 5779 5780 5781 5782 5782 5782 5782 5782 5782 5782 5781 5781 5780 5779 5778 5777 5776 5774 5772 5771 5770 5768 5766 5764 5762 5760 5757 5755 5753 5751 5749 5746 5744 5741
5757 5758 5760 5762 5764 5766 5767 5768 5769 5770 5770 5771 5771 5772 5772 5772 5772 5772 5771 5771 5771 5771 5771 5770 5768 5767 5766 5765 5763 5762 5760 5758 5756 5754 5752 5750 5748 5746 5744 5742 5740 5737 5735 5732
5749 5750 5752 5754 5756 5758 5759 5760 5761 5761 5761 5761 5762 5762 5762 5762 5763 5763 5762 5762 5761 5760 5760 5760 5759 5758 5757 5755 5754 5752 5751 5749 5747 5745 5743 5741 5739 5737 5735 5733 5731 5728 5726 5723
5741 5743 5744 5746 5748 5749 5751 5752 5752 5752 5752 5753 5753 5753 5753 5753 5753 5754 5754 5753 5752 5751 5751 5750 5749 5748 5747 5746 5744 5743 5741 5740 5738 5736 5734 5732 5730 5728 5726 5724 5722 5719 5717 5714
5733 5735 5736 5738 5740 5741 5742 5743 5744 5744 5744 5744 5744 5744 5744 5744 5744 5744 5744 5744 5743 5742 5742 5740 5739 5739 5738 5736 5735 5734 5733 5731 5729 5727 5726 5723 5721 5719 5717 5715 5713 5710 5708 5705
5726 5727 5728 5730 5731 5733 5734 5734 5735 5735 5736 5736 5735 5735 5735 5735 5735 5735 5734 5734 5733 5733 5733 5731 5730 5729 5728 5727 5726 5725 5724 5722 5720 5719 5717 5714 5712 5710 5708 5706 5703 5701 5699 5696
5718 5719 5720 5722 5723 5724 5725 5726 5727 5728 5728 5728 5728 5728 5727 5727 5727 5726 5726 5726 5725 5724 5724 5723 5722 5720 5719 5718 5717 5716 5714 5713 5711 5709 5707 5705 5703 5701 5699 5696 5694 5692 5690 5688
5710 5712 5713 5714 5715 5716 5717 5718 5719 5720 5720 5720 5720 5720 5720 5719 5719 5718 5718 5717 5716 5715 5715 5714 5713 5712 5710 5709 5708 5707 5705 5704 5702 5700 5698 5696 5694 5692 5690 5687 5685 5683 5681 5679
5703 5705 5706 5707 5708 5709 5710 5711 5712 5712 5713 5713 5713 5712 5712 5711 5711 5710 5709 5709 5708 5707 5706 5705 5704 5703 5702 5700 5699 5698 5696 5695 5693 5691 5690 5688 5686 5684 5681 5679 5676 5674 5672 5670
5696 5698 5699 5701 5702 5703 5703 5704 5704 5705 5705 5705 5705 5705 5704 5703 5703 5702 5701 5700 5699 5698 5697 5696 5695 5694 5693 5692 5690 5689 5687 5686 5684 5683 5681 5679 5677 5675 5673 5670 5668 5666 5664 5662
5690 5691 5693 5694 5695 5696 5696 5697 5698 5698 5698 5698 5697 5697 5696 5696 5695 5694 5693 5692 5691 5690 5689 5688 5687 5686 5684 5683 5681 5680 5678 5677 5675 5674 5672 5670 5668 5666 5664 5662 5660 5658 5656 5654
5685 5686 5687 5688 5689 5689 5690 5691 5691 5691 5691 5691 5690 5690 5689 5689 5688 5687 5686 5685 5684 5683 5682 5681 5679 5677 5676 5674 5673 5672 5670 5668 5667 5665 5663 5661 5659 5657 5655 5654 5652 5651 5649 5647
5680 5681 5682 5683 5683 5684 5684 5684 5684 5684 5684 5684 5684 5683 5682 5682 5681 5680 5679 5678 5677 5676 5674 5673 5672 5670 5669 5667 5666 5664 5662 5660 5658 5656 5654 5652 5651 5649 5648 5647 5645 5643 5642 5640
5675 5676 5676 5677 5677 5678 5678 5678 5678 5678 5678 5678 5677 5677 5676 5675 5675 5674 5673 5671 5670 5669 5668 5666 5665 5663 5662 5660 5658 5657 5654 5652 5650 5649 5647 5645 5643 5642 5641 5639 5638 5636 5635 5633